This demonstration page uses our WeatherBlox Daily Observations layout. Learn more.

Left ArrowRight Arrow

39.01783, -85.05884

Hourly Observations for December 17, 2020

Temp ( °F °C ) Dew Point ( °F °C ) Humidity (%) Winds ( mph kmh ) Pressure ( in mb ) Visibility ( mi km ) Precip ( " mm )
12:52 am 00:52 Cloudy with Mist and Fog 30 -1.1 26 -3.3 85 85 W 16 26 29.99 1016 6 10 N/A
1:52 am 01:52 Cloudy with Mist and Fog 29 -1.7 25 -3.9 85 85 WNW 12 19 29.99 1016 6 10 N/A
2:25 am 02:25 Cloudy 29 -1.7 25 -3.9 85 85 WNW 10 17 30.04 1017 7 11 N/A
2:52 am 02:52 Cloudy 29 -1.7 25 -3.9 85 85 W 8 13 30.02 1017 7 11 N/A
3:52 am 03:52 Cloudy with Mist and Fog 29 -1.7 25 -3.9 85 85 W 12 19 30.02 1017 6 10 N/A
4:52 am 04:52 Cloudy 29 -1.7 25 -3.9 85 85 W 9 15 30.03 1017 8 13 N/A
5:52 am 05:52 Cloudy 29 -1.7 25 -3.9 85 85 WNW 9 15 30.05 1018 7 11 N/A
6:52 am 06:52 Cloudy with Mist and Fog 30 -1.1 25 -3.9 82 82 WNW 7 11 30.06 1018 6 10 N/A
7:09 am 07:09 Cloudy with Mist and Fog 30 -1.1 25 -3.9 82 82 WNW 8 13 30.10 1019 6 10 N/A
7:52 am 07:52 Cloudy with Mist and Fog 29 -1.7 26 -3.3 89 89 W 6 9 30.08 1019 6 10 N/A
8:52 am 08:52 Cloudy with Mist and Fog 30 -1.1 26 -3.3 85 85 W 8 13 30.10 1019 5 8 N/A
9:52 am 09:52 Cloudy with Mist and Fog 30 -1.1 26 -3.3 85 85 W 8 13 30.11 1020 4 6 N/A
10:13 am 10:13 Cloudy with Mist and Fog 30 -1.1 27 -2.8 88 88 W 7 11 30.15 1021 4 6 N/A
10:52 am 10:52 Cloudy with Light Snow 30 -1.1 27 -2.8 88 88 W 6 9 30.12 1020 4 6 0.00 0.00
11:25 am 11:25 Cloudy with Light Snow 31 -0.6 27 -2.8 85 85 W 6 9 30.15 1021 4 6 0.00 0.00
11:35 am 11:35 Cloudy with Light Snow 31 -0.6 27 -2.8 85 85 W 7 11 30.15 1021 4 6 N/A
11:52 am 11:52 Cloudy with Mist and Fog 31 -0.6 27 -2.8 85 85 W 8 13 30.12 1020 4 6 N/A
12:52 pm 12:52 Cloudy with Haze 32 undefined 27 -2.8 82 82 W 7 11 30.10 1019 5 8 N/A
1:52 pm 13:52 Cloudy with Haze 32 undefined 26 -3.3 79 79 WSW 7 11 30.10 1019 6 10 N/A
2:52 pm 14:52 Cloudy with Light Snow 32 undefined 27 -2.8 82 82 W 10 17 30.12 1020 5 8 0.00 0.00
3:52 pm 15:52 Cloudy with Light Snow 32 undefined 27 -2.8 82 82 W 7 11 30.14 1021 5 8 0.00 0.00
4:38 pm 16:38 Cloudy with Light Snow 32 undefined 27 -2.8 82 82 W 9 15 30.20 1023 4 6 0.00 0.00
4:52 pm 16:52 Cloudy with Light Snow 32 undefined 27 -2.8 82 82 WNW 8 13 30.17 1022 4 6 0.00 0.00
5:19 pm 17:19 Cloudy with Light Snow 31 -0.6 27 -2.8 85 85 WNW 6 9 30.20 1023 3 5 0.01 0.25
5:52 pm 17:52 Cloudy with Light Snow 31 -0.6 28 -2.2 89 89 W 7 11 30.18 1022 5 8 0.01 0.25
6:12 pm 18:12 Cloudy with Light Snow 31 -0.6 27 -2.8 85 85 WSW 6 9 30.22 1023 5 8 0.00 0.00
6:52 pm 18:52 Cloudy with Light Snow 31 -0.6 28 -2.2 89 89 W 8 13 30.21 1023 5 8 0.00 0.00
7:13 pm 19:13 Cloudy with Light Snow 31 -0.6 28 -2.2 89 89 W 9 15 30.25 1024 5 8 0.00 0.00
7:52 pm 19:52 Cloudy with Light Snow 31 -0.6 27 -2.8 85 85 W 8 13 30.23 1024 4 6 0.00 0.00
8:52 pm 20:52 Cloudy with Light Snow 32 undefined 28 -2.2 85 85 W 7 11 30.24 1024 4 6 0.00 0.00
9:52 pm 21:52 Cloudy with Light Snow 31 -0.6 28 -2.2 89 89 W 7 11 30.25 1025 5 8 0.00 0.00
10:26 pm 22:26 Cloudy with Light Snow 32 undefined 28 -2.2 85 85 WNW 5 7 30.29 1026 4 6 0.00 0.00
10:52 pm 22:52 Cloudy with Light Snow 32 undefined 28 -2.2 85 85 W 5 7 30.27 1025 6 10 0.00 0.00
10:58 pm 22:58 Cloudy with Light Snow 32 undefined 28 -2.2 85 85 W 3 6 30.30 1026 3 4 0.00 0.00
11:05 pm 23:05 Cloudy with Light Snow 32 undefined 28 -2.2 85 85 W 5 7 30.30 1026 5 8 0.00 0.00
11:26 pm 23:26 Cloudy with Light Snow 32 undefined 29 -1.7 88 88 W 3 6 30.30 1026 2 3 0.00 0.00
11:52 pm 23:52 Cloudy with Light Snow 32 undefined 29 -1.7 88 88 VRB 7 11 30.28 1025 2 3 0.01 0.25

Powered by AerisWeather